| time (UTC) | temp C | wind direction | speed KPH | gust KPH | rain 1hr cm | rain 24hr cm | rain mn cm | humidity % | barometer mb |
| 20260505085105 | 18 | 136 | 0.0 | 0.0 | 0.00 | 0.33 | 0.03 | 75 | 1010.8 |
| 20260505084605 | 18 | 136 | 0.0 | 0.0 | 0.00 | 0.33 | 0.03 | 75 | 1010.5 |
| 20260505084104 | 18 | 136 | 0.0 | 0.0 | 0.00 | 0.33 | 0.03 | 75 | 1010.5 |
| 20260505083605 | 18 | 136 | 0.0 | 0.0 | 0.00 | 0.33 | 0.03 | 75 | 1010.5 |
| 20260505083105 | 18 | 136 | 0.0 | 0.0 | 0.00 | 0.33 | 0.03 | 75 | 1010.6 |
| 20260505082605 | 18 | 136 | 0.0 | 0.0 | 0.00 | 0.33 | 0.03 | 75 | 1010.5 |
| 20260505082105 | 18 | 136 | 0.0 | 0.0 | 0.00 | 0.33 | 0.03 | 75 | 1010.8 |
| 20260505081605 | 17 | 136 | 0.0 | 0.0 | 0.00 | 0.33 | 0.03 | 75 | 1010.8 |
| 20260505081104 | 17 | 136 | 0.0 | 0.0 | 0.00 | 0.33 | 0.03 | 75 | 1010.6 |
| 20260505080605 | 18 | 136 | 0.0 | 0.0 | 0.00 | 0.33 | 0.03 | 74 | 1010.5 |
| 20260505080105 | 18 | 136 | 0.0 | 0.0 | 0.00 | 0.33 | 0.03 | 74 | 1010.5 |
| 20260505074607 | 18 | 136 | 0.0 | 0.0 | 0.00 | 0.33 | 0.03 | 74 | 1010.2 |
| 20260505074105 | 18 | 136 | 0.0 | 0.0 | 0.00 | 0.33 | 0.03 | 74 | 1010.2 |
| 20260505073105 | 18 | 135 | 0.0 | 0.0 | 0.00 | 0.33 | 0.03 | 74 | 1010.5 |
| 20260505072606 | 18 | 136 | 0.0 | 0.0 | 0.03 | 0.33 | 0.03 | 74 | 1010.2 |
| 20260505072105 | 18 | 136 | 0.0 | 0.0 | 0.03 | 0.33 | 0.03 | 74 | 1010.5 |
| 20260505071606 | 18 | 136 | 0.0 | 0.0 | 0.03 | 0.33 | 0.03 | 74 | 1010.5 |
| 20260505071106 | 18 | 144 | 0.0 | 0.0 | 0.03 | 0.33 | 0.03 | 74 | 1010.8 |
| 20260505070605 | 18 | 157 | 0.0 | 0.0 | 0.03 | 0.33 | 0.03 | 74 | 1010.5 |
| 20260505070105 | 18 | 80 | 0.0 | 0.0 | 0.03 | 0.33 | 0.03 | 74 | 1010.8 |
| 20260505065104 | 18 | 79 | 1.6 | 3.2 | 0.03 | 0.33 | 0.03 | 74 | 1011.0 |
| 20260505064606 | 18 | 118 | 1.6 | 1.6 | 0.03 | 0.33 | 0.03 | 74 | 1011.2 |
| 20260505064105 | 18 | 118 | 0.0 | 0.0 | 0.03 | 0.33 | 0.03 | 74 | 1011.2 |
| 20260505063605 | 18 | 119 | 0.0 | 0.0 | 0.03 | 0.33 | 0.03 | 74 | 1011.2 |
| 20260505063105 | 18 | 119 | 0.0 | 3.2 | 0.03 | 0.33 | 0.03 | 74 | 1011.3 |
| 20260505062605 | 18 | 118 | 1.6 | 3.2 | 0.00 | 0.30 | 0.00 | 74 | 1011.5 |
| 20260505062105 | 18 | 109 | 1.6 | 3.2 | 0.00 | 0.30 | 0.00 | 74 | 1011.5 |
| 20260505061605 | 18 | 143 | 0.0 | 0.0 | 0.00 | 0.30 | 0.00 | 74 | 1011.2 |
| 20260505061105 | 18 | 143 | 0.0 | 1.6 | 0.00 | 0.30 | 0.00 | 74 | 1011.5 |
| 20260505060605 | 18 | 142 | 1.6 | 1.6 | 0.00 | 0.30 | 0.00 | 74 | 1011.5 |
| 20260505060105 | 18 | 98 | 0.0 | 0.0 | 0.00 | 0.30 | 0.00 | 74 | 1011.5 |
| 20260505055105 | 18 | 96 | 0.0 | 0.0 | 0.00 | 0.30 | 0.00 | 74 | 1011.5 |
| 20260505054605 | 18 | 96 | 0.0 | 0.0 | 0.00 | 0.30 | 0.00 | 74 | 1011.4 |
| 20260505054105 | 18 | 96 | 0.0 | 0.0 | 0.00 | 0.30 | 0.00 | 74 | 1011.5 |
| 20260505053605 | 18 | 95 | 0.0 | 0.0 | 0.00 | 0.30 | 0.00 | 74 | 1011.5 |
| 20260505053105 | 18 | 95 | 0.0 | 0.0 | 0.03 | 0.30 | 0.00 | 74 | 1011.5 |
| 20260505052605 | 18 | 95 | 0.0 | 0.0 | 0.03 | 0.30 | 0.00 | 74 | 1011.5 |
| 20260505052105 | 18 | 95 | 0.0 | 0.0 | 0.03 | 0.30 | 0.00 | 74 | 1011.5 |
| 20260505051105 | 18 | 95 | 0.0 | 0.0 | 0.03 | 0.30 | 0.00 | 74 | 1011.7 |
| 20260505050605 | 18 | 95 | 0.0 | 0.0 | 0.03 | 0.30 | 0.00 | 74 | 1011.5 |
| 20260505050105 | 18 | 95 | 0.0 | 0.0 | 0.03 | 0.30 | 0.00 | 74 | 1011.5 |
| 20260505041605 | 18 | 95 | 0.0 | 0.0 | 0.20 | 0.28 | 0.28 | 73 | 1012.2 |
| 20260505041105 | 18 | 95 | 0.0 | 0.0 | 0.20 | 0.28 | 0.28 | 73 | 1012.5 |
| 20260505040604 | 18 | 95 | 0.0 | 3.2 | 0.20 | 0.28 | 0.28 | 72 | 1012.4 |
| 20260505040105 | 18 | 95 | 0.0 | 3.2 | 0.20 | 0.28 | 0.28 | 72 | 1012.3 |
| 20260505035605 | 18 | 155 | 0.0 | 1.6 | 0.20 | 0.28 | 0.28 | 71 | 1012.2 |
| 20260505035106 | 18 | 155 | 1.6 | 3.2 | 0.20 | 0.28 | 0.28 | 70 | 1012.4 |
| 20260505034605 | 18 | 155 | 1.6 | 4.8 | 0.20 | 0.28 | 0.28 | 70 | 1012.4 |
| 20260505034105 | 18 | 156 | 3.2 | 4.8 | 0.08 | 0.15 | 0.15 | 70 | 1012.2 |
| 20260505033605 | 18 | 155 | 1.6 | 4.8 | 0.03 | 0.10 | 0.10 | 70 | 1012.5 |
| 20260505033104 | 19 | 136 | 3.2 | 8.0 | 0.00 | 0.08 | 0.08 | 70 | 1011.9 |
| 20260505032605 | 19 | 161 | 4.8 | 8.0 | 0.00 | 0.08 | 0.08 | 71 | 1012.2 |
| 20260505031605 | 19 | 96 | 0.0 | 0.0 | 0.05 | 0.08 | 0.08 | 71 | 1011.9 |
| 20260505031105 | 19 | 96 | 0.0 | 0.0 | 0.08 | 0.08 | 0.08 | 70 | 1011.9 |
| 20260505030605 | 19 | 96 | 0.0 | 0.0 | 0.08 | 0.08 | 0.08 | 70 | 1011.9 |
| 20260505030105 | 19 | 96 | 0.0 | 0.0 | 0.08 | 0.10 | 0.08 | 70 | 1011.6 |
| 20260505025605 | 19 | 96 | 0.0 | 0.0 | 0.08 | 0.23 | 0.08 | 69 | 1011.9 |
| 20260505024605 | 19 | 97 | 0.0 | 0.0 | 0.08 | 0.48 | 0.08 | 70 | 1011.5 |
| 20260505024105 | 20 | 96 | 0.0 | 3.2 | 0.08 | 0.48 | 0.08 | 70 | 1011.5 |
| 20260505023605 | 20 | 113 | 0.0 | 3.2 | 0.08 | 0.48 | 0.08 | 70 | 1011.9 |
| 20260505023105 | 20 | 138 | 1.6 | 3.2 | 0.08 | 0.48 | 0.08 | 70 | 1011.5 |
| 20260505022105 | 20 | 75 | 1.6 | 1.6 | 0.05 | 0.46 | 0.05 | 68 | 1011.1 |
| 20260505021605 | 20 | 140 | 0.0 | 1.6 | 0.03 | 0.43 | 0.03 | 66 | 1011.2 |
| 20260505021105 | 20 | 185 | 0.0 | 0.0 | 0.00 | 0.41 | 0.00 | 65 | 1010.8 |
| 20260505020105 | 20 | 185 | 0.0 | 4.8 | 0.00 | 0.41 | 0.00 | 65 | 1010.7 |
| 20260505015106 | 20 | 179 | 3.2 | 8.0 | 0.00 | 0.41 | 0.00 | 64 | 1010.5 |
| 20260505014605 | 20 | 183 | 3.2 | 8.0 | 0.00 | 0.43 | 0.00 | 65 | 1010.3 |
| 20260505014105 | 20 | 173 | 0.0 | 0.0 | 0.00 | 0.43 | 0.00 | 65 | 1010.4 |
| 20260505013605 | 20 | 173 | 0.0 | 0.0 | 0.00 | 0.48 | 0.00 | 66 | 1010.5 |
| 20260505013105 | 20 | 173 | 0.0 | 1.6 | 0.00 | 0.48 | 0.00 | 67 | 1010.2 |
| 20260505012104 | 20 | 173 | 0.0 | 1.6 | 0.00 | 0.48 | 0.00 | 66 | 1010.2 |
| 20260505011620 | 20 | 173 | 1.6 | 1.6 | 0.00 | 0.48 | 0.00 | 66 | 1009.8 |
| 20260505011105 | 20 | 173 | 0.0 | 0.0 | 0.00 | 0.48 | 0.00 | 66 | 1009.8 |
| 20260505010604 | 20 | 173 | 0.0 | 0.0 | 0.00 | 0.48 | 0.00 | 66 | 1009.8 |
| 20260505010105 | 20 | 173 | 0.0 | 0.0 | 0.00 | 0.48 | 0.00 | 66 | 1009.8 |
| 20260505005605 | 20 | 173 | 0.0 | 0.0 | 0.00 | 0.48 | 0.00 | 65 | 1009.4 |
| 20260505005106 | 20 | 173 | 0.0 | 1.6 | 0.00 | 0.48 | 0.00 | 65 | 1009.4 |
| 20260505004605 | 20 | 173 | 0.0 | 3.2 | 0.00 | 0.48 | 0.00 | 64 | 1009.1 |
| 20260505004105 | 20 | 173 | 1.6 | 3.2 | 0.00 | 0.48 | 0.00 | 64 | 1009.1 |
| 20260505003605 | 20 | 173 | 1.6 | 4.8 | 0.00 | 0.48 | 0.00 | 64 | 1008.8 |
| 20260505003105 | 20 | 166 | 3.2 | 8.0 | 0.00 | 0.48 | 0.00 | 64 | 1008.8 |
| 20260505002604 | 20 | 170 | 4.8 | 8.0 | 0.00 | 0.48 | 0.00 | 63 | 1009.0 |
| 20260505002105 | 20 | 128 | 0.0 | 0.0 | 0.00 | 0.48 | 0.00 | 64 | 1008.8 |
| 20260505001605 | 21 | 128 | 0.0 | 1.6 | 0.00 | 0.48 | 0.00 | 65 | 1008.5 |
| 20260505000605 | 29 | 260 | 4.8 | 11.3 | 0.00 | 0.48 | 0.00 | 46 | 999.7 |
| 20260505000105 | 29 | 260 | 4.8 | 11.3 | 0.00 | 0.48 | 0.00 | 46 | 999.7 |
| 20260504235604 | 29 | 260 | 4.8 | 11.3 | 0.00 | 0.48 | 0.00 | 46 | 999.7 |
| 20260504235105 | 29 | 260 | 4.8 | 11.3 | 0.00 | 0.48 | 0.00 | 46 | 999.7 |
| 20260504234605 | 29 | 260 | 4.8 | 11.3 | 0.00 | 0.48 | 0.00 | 46 | 999.7 |
| 20260504234104 | 29 | 260 | 4.8 | 11.3 | 0.00 | 0.48 | 0.00 | 46 | 999.7 |
| 20260504233104 | 29 | 260 | 4.8 | 11.3 | 0.00 | 0.48 | 0.00 | 46 | 999.7 |
| 20260504232605 | 29 | 260 | 4.8 | 11.3 | 0.00 | 0.48 | 0.00 | 46 | 999.7 |
| 20260504232105 | 29 | 260 | 4.8 | 11.3 | 0.00 | 0.48 | 0.00 | 46 | 999.7 |
| 20260504231605 | 29 | 260 | 4.8 | 11.3 | 0.00 | 0.48 | 0.00 | 46 | 999.7 |
| 20260504230605 | 29 | 260 | 4.8 | 11.3 | 0.00 | 0.48 | 0.00 | 46 | 999.7 |
| 20260504230105 | 29 | 260 | 4.8 | 11.3 | 0.00 | 0.48 | 0.00 | 46 | 999.7 |
| 20260504225605 | 29 | 260 | 4.8 | 11.3 | 0.00 | 0.48 | 0.00 | 46 | 999.7 |
| 20260504225104 | 29 | 260 | 4.8 | 11.3 | 0.00 | 0.48 | 0.00 | 46 | 999.7 |
| 20260504224605 | 29 | 260 | 4.8 | 11.3 | 0.00 | 0.48 | 0.00 | 46 | 999.7 |
| 20260504223605 | 29 | 260 | 4.8 | 11.3 | 0.00 | 0.48 | 0.00 | 46 | 999.7 |
| 20260504223104 | 29 | 260 | 4.8 | 11.3 | 0.00 | 0.48 | 0.00 | 46 | 999.7 |
| 20260504222604 | 29 | 260 | 4.8 | 11.3 | 0.00 | 0.48 | 0.00 | 46 | 999.7 |
| 20260504222105 | 29 | 260 | 4.8 | 11.3 | 0.00 | 0.48 | 0.00 | 46 | 999.7 |
| 20260504221605 | 29 | 260 | 4.8 | 11.3 | 0.00 | 0.48 | 0.00 | 46 | 999.7 |
| 20260504221105 | 29 | 260 | 4.8 | 11.3 | 0.00 | 0.48 | 0.00 | 46 | 999.7 |
| 20260504220605 | 29 | 260 | 4.8 | 11.3 | 0.00 | 0.48 | 0.00 | 46 | 999.7 |
| 20260504220106 | 29 | 260 | 4.8 | 11.3 | 0.00 | 0.48 | 0.00 | 46 | 999.7 |
| 20260504215606 | 29 | 260 | 4.8 | 11.3 | 0.00 | 0.48 | 0.00 | 46 | 999.7 |
| 20260504215104 | 29 | 260 | 4.8 | 11.3 | 0.00 | 0.48 | 0.00 | 46 | 999.7 |
| 20260504214605 | 29 | 260 | 4.8 | 11.3 | 0.00 | 0.48 | 0.00 | 46 | 999.7 |
| 20260504214105 | 29 | 260 | 4.8 | 11.3 | 0.00 | 0.48 | 0.00 | 46 | 999.7 |
| 20260504213604 | 29 | 260 | 4.8 | 11.3 | 0.00 | 0.48 | 0.00 | 46 | 999.7 |
| 20260504212605 | 29 | 260 | 4.8 | 11.3 | 0.00 | 0.48 | 0.00 | 46 | 999.7 |
| 20260504212105 | 29 | 260 | 4.8 | 11.3 | 0.00 | 0.48 | 0.00 | 46 | 999.7 |
| 20260504211605 | 29 | 260 | 4.8 | 11.3 | 0.00 | 0.48 | 0.00 | 46 | 999.7 |
| 20260504211104 | 29 | 260 | 4.8 | 11.3 | 0.00 | 0.48 | 0.00 | 46 | 999.7 |
| 20260504210106 | 29 | 260 | 4.8 | 11.3 | 0.00 | 0.48 | 0.00 | 46 | 999.7 |
| 20260504205604 | 29 | 260 | 4.8 | 11.3 | 0.00 | 0.48 | 0.00 | 46 | 999.7 |
| 20260504205104 | 29 | 95 | 4.8 | 16.1 | 0.00 | 0.48 | 0.00 | 47 | 1000.1 |
| 20260504204605 | 29 | 281 | 8.0 | 20.9 | 0.00 | 0.48 | 0.00 | 46 | 999.7 |
| 20260504204105 | 30 | 293 | 12.9 | 24.1 | 0.00 | 0.48 | 0.00 | 46 | 999.6 |
| 20260504203604 | 30 | 2 | 11.3 | 20.9 | 0.00 | 0.48 | 0.00 | 43 | 999.4 |
| 20260504203104 | 30 | 344 | 4.8 | 20.9 | 0.00 | 0.48 | 0.00 | 43 | 999.7 |
| 20260504202605 | 30 | 9 | 8.0 | 24.1 | 0.00 | 0.48 | 0.00 | 44 | 999.6 |
| 20260504202105 | 30 | 348 | 8.0 | 22.5 | 0.00 | 0.48 | 0.00 | 44 | 999.7 |
| 20260504201604 | 30 | 148 | 8.0 | 22.5 | 0.00 | 0.48 | 0.00 | 45 | 999.7 |
| 20260504201105 | 30 | 316 | 11.3 | 20.9 | 0.00 | 0.48 | 0.00 | 44 | 999.7 |
| 20260504200605 | 30 | 149 | 8.0 | 19.3 | 0.00 | 0.48 | 0.00 | 44 | 999.7 |
| 20260504200105 | 30 | 292 | 11.3 | 19.3 | 0.00 | 0.48 | 0.00 | 43 | 999.7 |
| 20260504195605 | 30 | 296 | 11.3 | 16.1 | 0.00 | 0.48 | 0.00 | 43 | 999.7 |
| 20260504195105 | 30 | 339 | 9.7 | 19.3 | 0.00 | 0.48 | 0.00 | 45 | 1000.0 |
| 20260504194604 | 29 | 16 | 4.8 | 19.3 | 0.00 | 0.48 | 0.00 | 47 | 1000.7 |
| 20260504194104 | 29 | 282 | 4.8 | 19.3 | 0.00 | 0.48 | 0.00 | 47 | 1000.7 |
| 20260504193604 | 29 | 172 | 4.8 | 32.2 | 0.00 | 0.48 | 0.00 | 48 | 1000.7 |
| 20260504193105 | 30 | 346 | 9.7 | 24.1 | 0.00 | 0.48 | 0.00 | 45 | 1000.2 |
| 20260504192604 | 30 | 288 | 11.3 | 35.4 | 0.00 | 0.48 | 0.00 | 47 | 1000.6 |
| 20260504192105 | 30 | 7 | 16.1 | 35.4 | 0.00 | 0.48 | 0.00 | 46 | 1000.3 |
| 20260504191604 | 30 | 328 | 9.7 | 19.3 | 0.00 | 0.48 | 0.00 | 42 | 1000.0 |
| 20260504190604 | 30 | 291 | 8.0 | 27.4 | 0.00 | 0.48 | 0.00 | 44 | 1000.7 |
| 20260504190105 | 29 | 323 | 14.5 | 27.4 | 0.00 | 0.48 | 0.00 | 47 | 1000.7 |
| 20260504185605 | 30 | 339 | 9.7 | 27.4 | 0.00 | 0.48 | 0.00 | 44 | 1000.6 |
| 20260504185105 | 30 | 276 | 3.2 | 33.8 | 0.00 | 0.48 | 0.00 | 44 | 1000.3 |
| 20260504184605 | 31 | 1 | 8.0 | 19.3 | 0.00 | 0.48 | 0.00 | 41 | 999.8 |
| 20260504184105 | 30 | 50 | 9.7 | 20.9 | 0.00 | 0.48 | 0.00 | 43 | 1000.2 |
| 20260504183604 | 30 | 334 | 9.7 | 25.7 | 0.00 | 0.48 | 0.00 | 43 | 1000.3 |
| 20260504183105 | 30 | 348 | 11.3 | 27.4 | 0.00 | 0.48 | 0.00 | 43 | 1000.6 |
| 20260504182604 | 31 | 323 | 8.0 | 27.4 | 0.00 | 0.48 | 0.00 | 43 | 1000.5 |
| 20260504182104 | 30 | 268 | 8.0 | 19.3 | 0.00 | 0.48 | 0.00 | 42 | 1000.3 |
| 20260504181605 | 30 | 318 | 9.7 | 27.4 | 0.00 | 0.48 | 0.00 | 42 | 1000.7 |
| 20260504181104 | 31 | 32 | 4.8 | 25.7 | 0.00 | 0.48 | 0.00 | 43 | 1000.4 |
| 20260504180105 | 31 | 290 | 12.9 | 20.9 | 0.00 | 0.48 | 0.00 | 39 | 1000.3 |
| 20260504175605 | 31 | 26 | 11.3 | 19.3 | 0.00 | 0.48 | 0.00 | 41 | 1000.7 |
| 20260504175104 | 30 | 280 | 9.7 | 22.5 | 0.00 | 0.48 | 0.00 | 43 | 1000.9 |
| 20260504174604 | 30 | 287 | 11.3 | 22.5 | 0.00 | 0.48 | 0.00 | 41 | 1001.0 |
| 20260504174105 | 30 | 158 | 11.3 | 22.5 | 0.00 | 0.48 | 0.00 | 43 | 1001.0 |
| 20260504173604 | 30 | 198 | 6.4 | 20.9 | 0.00 | 0.48 | 0.00 | 42 | 1001.4 |
| 20260504173104 | 30 | 12 | 9.7 | 29.0 | 0.00 | 0.48 | 0.00 | 44 | 1001.7 |
| 20260504172605 | 30 | 309 | 11.3 | 25.7 | 0.00 | 0.48 | 0.00 | 43 | 1001.7 |
| 20260504171605 | 25 | 324 | 6.4 | 25.7 | 0.00 | 0.48 | 0.00 | 50 | 1005.1 |
| 20260504171105 | 25 | 312 | 11.3 | 19.3 | 0.00 | 0.48 | 0.00 | 47 | 1004.7 |
| 20260504170105 | 25 | 330 | 8.0 | 22.5 | 0.00 | 0.48 | 0.00 | 53 | 1005.3 |
| 20260504150605 | 23 | 184 | 6.4 | 11.3 | 0.00 | 0.48 | 0.00 | 60 | 1007.3 |
| 20260504150104 | 23 | 161 | 4.8 | 11.3 | 0.00 | 0.48 | 0.00 | 66 | 1007.5 |
| 20260504141105 | 22 | 53 | 3.2 | 9.7 | 0.00 | 0.48 | 0.00 | 71 | 1009.3 |
| 20260504140605 | 22 | 10 | 3.2 | 9.7 | 0.00 | 0.48 | 0.00 | 70 | 1009.5 |
| 20260504130604 | 20 | 160 | 0.0 | 1.6 | 0.00 | 0.48 | 0.00 | 87 | 1010.5 |
| 20260504130104 | 20 | 160 | 0.0 | 1.6 | 0.00 | 0.48 | 0.00 | 87 | 1010.5 |
| 20260504120105 | 18 | 122 | 0.0 | 3.2 | 0.00 | 0.48 | 0.00 | 94 | 1011.4 |
| 20260504110605 | 17 | 176 | 0.0 | 0.0 | 0.00 | 0.48 | 0.00 | 97 | 1011.9 |
| 20260504110104 | 17 | 176 | 0.0 | 0.0 | 0.00 | 0.48 | 0.00 | 97 | 1011.6 |
| 20260504100604 | 17 | 176 | 0.0 | 0.0 | 0.00 | 0.48 | 0.00 | 97 | 1011.5 |
| 20260504100104 | 17 | 176 | 0.0 | 0.0 | 0.00 | 0.48 | 0.00 | 97 | 1011.4 |
| 20260504090104 | 17 | 176 | 0.0 | 0.0 | 0.00 | 0.53 | 0.00 | 97 | 1010.8 |